SCP
0 0 0 0 0 0 0 0 0 0 0 0 0 0 0 0 0 0 0 0 0 0 0 0 0 0 0 0 0 0 0 0 0 0 0 0 0 0 0 0 0 0 0 0 0 0 0 0 0 0 0 0 0 0
0 0 0 0 0 0 0 0 0 0 0 0 0 0 0 0 0 0 0 0 0 0 0 0 0 0 0 0 0 0 0 0 0 0 0 0 0 0 0 0 0 0 0 0 0 0 0 0 0 0 0 0 0 0
0 0 0 0 0 0 0 0 0 0 0 0 0 0 0 0 0 0 0 0 0 0 0 0 0 0 0 0 0 0 0 0 0 0 0 0 0 0 0 0 0 0 0 0 0 0 0 0 0 0 0 0 0 0
0 0 0 0 0 0 0 0 0 0 0 0 0 0 0 0 0 0 0 0 0 0 0 0 0 0 0 0 0 0 0 0 0 0 0 0 0 0 0 0 0 0 0 0 0 0 0 0 0 0 0 0 0 0
0 0 0 0 0 0 0 0 0 0 0 0 0 0 0 0 0 0 0 0 0 0 0 0 0 0 0 0 0 0 0 0 0 0 0 0 0 0 0 0 0 0 0 0 0 0 0 0 0 0 0 0 0 0
0 0 0 0 0 0 0 0 0 0 0 0 0 0 0 0 0 0 0 0 0 0 0 0 0 0 0 0 0 0 0 0 0 0 0 0 0 0 0 0 0 0 0 0 0 0 0 0 0 0 0 0 0 0
0 0 0 0 0 0 0 0 0 0 0 0 0 0 0 0 0 0 0 0 0 0 0 0 0 0 0 0 0 0 0 0 0 0 0 0 0 0 0 0 0 0 0 0 0 0 0 0 0 0 0 0 0 0
0 0 0 0 0 0 0 0 0 0 0 0 0 0 0 0 0 0 0 0 0 0 0 0 0 0 0 0 0 0 0 0 0 0 0 0 0 0 0 0 0 0 0 0 0 0 0 0 0 0 0 0 0 0
0 0 0 0 0 0 0 0 0 0 0 0 0 0 0 0 0 0 0 0 0 0 0 0 0 0 0 0 0 0 0 0 0 0 0 0 0 0 0 0 0 0 0 0 0 0 0 0 0 0 0 0 0 0
0 0 0 0 0 0 0 0 0 0 0 0 0 0 0 0 0 0 0 0 0 0 0 0 0 0 0 0 0 0 0 0 0 0 0 0 0 0 0 0 0 0 0 0 0 0 0 0 0 0 0 0 0 0
0 0 0 0 0 0 0 0 0 0 0 0 0 0 0 0 0 0 0 0 0 0 0 0 0 0 0 0 0 0 0 0 0 0 0 0 0 0 0 0 0 0 0 0 0 0 0 0 0 0 0 0 0 0
0 0 0 0 0 0 0 0 0 0 0 0 0 0 0 0 0 0 0 0 0 0 0 0 0 0 0 0 0 0 0 0 0 0 0 0 0 0 0 0 0 0 0 0 0 0 0 0 0 0 0 0 0 0
0 0 0 0 0 0 0 0 0 0 0 0 0 0 0 0 0 0 0 0 0 0 0 0 0 0 0 0 0 0 0 0 0 0 0 0 0 0 0 0 0 0 0 0 0 0 0 0 0 0 0 0 0 0
0 0 0 0 0 0 0 0 0 0 0 0 0 0 0 0 0 0 0 0 0 0 0 0 0 0 0 0 0 0 0 0 0 0 0 0 0 0 0 0 0 0 0 0 0 0 0 0 0 0 0 0 0 0
0 0 0 0 0 0 0 0 0 0 0 0 0 0 0 0 0 0 0 0 0 0 0 0 0 0 0 0 0 0 0 0 0 0 0 0 0 0 0 0 0 0 0 0 0 0 0 0 0 0 0 0 0 0
0 0 0 0 0 0 0 0 0 0 0 0 0 0 0 0 0 0 0 0 0 0 0 0 0 0 0 0 0 0 0 0 0 0 0 0 0 0 0 0 0 0 0 0 0 0 0 0 0 0 0 0 0 0
0 0 0 0 0 0 0 0 0 0 0 0 0 0 0 0 0 0 0 0 0 0 0 0 0 0 0 0 0 0 0 0 0 0 0 0 0 0 0 0 0 0 0 0 0 0 0 0 0 0 0 0 0 0
0 0 0 0 0 0 0 0 0 0 0 0 0 0 0 0 0 0 0 0 0 0 0 0 0 0 0 0 0 0 0 0 0 0 0 0 0 0 0 0 0 0 0 0 0 0 0 0 0 0 0 0 0 0
0 0 0 0 0 0 0 0 0 0 0 0 0 0 0 0 0 0 0 0 0 0 0 0 0 0 0 0 0 0 0 0 0 0 0 0 0 0 0 0 0 0 0 0 0 0 0 0 0 0 0 0 0 0
0 0 0 0 0 0 0 0 0 0 0 0 0 0 0 0 0 0 0 0 0 0 0 0 0 0 0 0 0 0 0 0 0 0 0 0 0 0 0 0 0 0 0 0 0 0 0 0 0 0 0 0 0 0
0 0 0 0 0 0 0 0 0 0 0 0 0 0 0 0 0 0 0 0 0 0 0 0 0 0 0 0 0 0 0 0 0 0 0 0 0 0 0 0 0 0 0 0 0 0 0 0 0 0 0 0 0 0
0 0 0 0 0 0 0 0 0 0 0 0 0 0 0 0 0 0 0 0 0 0 0 0 0 0 0 0 0 0 0 0 0 0 0 0 0 0 0 0 0 0 0 0 0 0 0 0 0 0 0 0 0 0
0 0 0 0 0 0 0 0 0 0 0 0 0 0 0 0 0 0 0 0 0 0 0 0 0 0 0 0 0 0 0 0 0 0 0 0 0 0 0 0 0 0 0 0 0 0 0 0 0 0 0 0 0 0
0 0 0 0 0 0 0 0 0 0 0 0 0 0 0 0 0 0 0 0 0 0 0 0 0 0 0 0 0 0 0 0 0 0 0 0 0 0 0 0 0 0 0 0 0 0 0 0 0 0 0 0 0 0
0 0 0 0 0 0 0 0 0 0 0 0 0 0 0 0 0 0 0 0 0 0 0 0 0 0 0 0 0 0 0 0 0 0 0 0 0 0 0 0 0 0 0 0 0 0 0 0 0 0 0 0 0 0
0 0 0 0 0 0 0 0 0 0 0 0 0 0 0 0 0 0 0 0 0 0 0 0 0 0 0 0 0 0 0 0 0 0 0 0 0 0 0 0 0 0 0 0 0 0 0 0 0 0 0 0 0 0
0 0 0 0 0 0 0 0 0 0 0 0 0 0 0 0 0 0 0 0 0 0 0 0 0 0 0 0 0 0 0 0 0 0 0 0 0 0 0 0 0 0 0 0 0 0 0 0 0 0 0 0 0 0
0 0 0 0 0 0 0 0 0 0 0 0 0 0 0 0 0 0 0 0 0 0 0 0 0 0 0 0 0 0 0 0 0 0 0 0 0 0 0 0 0 0 0 0 0 0 0 0 0 0 0 0 0 0
0 0 0 0 0 0 0 0 0 0 0 0 0 0 0 0 0 0 0 0 0 0 0 0 0 0 0 0 0 0 0 0 0 0 0 0 0 0 0 0 0 0 0 0 0 0 0 0 0 0 0 0 0 0
0 0 0 0 0 0 0 0 0 0 0 0 0 0 0 0 0 0 0 0 0 0 0 0 0 0 0 0 0 0 0 0 0 0 0 0 0 0 0 0 0 0 0 0 0 0 0 0 0 0 0 0 0 0
0 0 0 0 0 0 0 0 0 0 0 0 0 0 0 0 0 0 0 0 0 0 0 0 0 0 0 0 0 0 0 0 0 0 0 0 0 0 0 0 0 0 0 0 0 0 0 0 0 0 0 0 0 0
0 0 0 0 0 0 0 0 0 0 0 0 0 0 0 0 0 0 0 0 0 0 0 0 0 0 0 0 0 0 0 0 0 0 0 0 0 0 0 0 0 0 0 0 0 0 0 0 0 0 0 0 0 0
0 0 0 0 0 0 0 0 0 0 0 0 0 0 0 0 0 0 0 0 0 0 0 0 0 0 0 0 0 0 0 0 0 0 0 0 0 0 0 0 0 0 0 0 0 0 0 0 0 0 0 0 0 0
Wind_Speed_500mb
61 56 51 45 42 41 41 41 40 36 33 29 25 21 18 16 16 16 16 15 12 9 23 15 14 12 14 15 9 18 11 4 5 5 7 6 5 7 5 3 7 9 12 9 5 8 11 3 7 6 23 41 43 41
26 58 51 46 45 39 40 42 40 37 34 31 27 23 19 18 17 17 17 15 14 9 14 19 16 17 15 17 15 25 3 11 16 7 5 6 5 2 3 6 8 10 11 6 11 13 25 34 35 38 31 31 15 9
12 22 50 49 44 44 40 41 41 38 35 33 30 26 21 18 16 16 18 19 17 13 13 15 14 20 18 18 20 10 11 13 11 11 13 4 6 10 8 10 17 13 21 9 15 21 35 34 44 14 17 23 11 15
17 8 15 52 49 47 43 38 39 39 36 33 31 28 24 20 18 17 18 19 15 10 9 8 16 20 24 24 24 23 15 22 16 16 8 5 4 16 6 8 12 21 20 22 29 38 41 19 8 8 1 10 7 4
13 14 3 16 40 53 46 44 41 37 38 35 32 29 26 21 18 16 17 18 19 9 8 8 16 17 20 22 26 26 23 24 17 11 7 6 6 7 4 1 8 35 33 12 10 23 16 7 4 0 4 5 5 14
9 9 11 5 20 33 54 53 44 42 37 36 33 30 27 22 16 13 8 16 18 15 7 4 9 15 25 26 25 23 19 17 17 10 9 10 14 11 7 6 16 18 21 23 18 17 3 13 2 13 3 7 15 26
5 8 11 3 10 21 34 68 57 53 46 42 36 33 28 25 22 15 6 6 27 19 7 2 3 6 17 16 15 16 21 13 12 9 11 13 14 13 3 8 7 2 3 4 5 6 10 8 4 5 8 19 27 33
8 9 14 3 4 8 24 42 71 62 56 48 41 36 32 30 29 30 23 7 21 16 9 6 3 4 14 9 8 10 9 15 15 11 7 9 10 11 6 9 5 11 9 10 5 4 7 10 2 13 20 28 34 38
4 5 11 10 6 11 11 31 68 74 62 58 46 43 40 45 35 39 35 30 23 19 8 11 9 7 15 8 8 8 10 3 7 7 8 10 4 9 4 9 7 15 10 19 17 10 4 5 13 21 28 33 38 44
3 1 3 5 7 7 12 20 50 75 71 61 59 35 21 23 31 37 26 16 15 22 22 11 14 6 12 13 6 10 5 2 4 2 3 4 4 3 8 16 19 24 22 12 5 2 11 18 23 28 31 34 38 45
6 3 2 3 4 7 4 10 29 62 64 69 32 19 28 50 29 23 13 11 10 3 11 12 14 7 13 5 6 7 5 4 4 4 4 4 5 15 27 24 20 19 13 6 3 10 17 23 29 32 36 38 40 51
8 3 2 4 2 6 7 22 40 52 30 30 32 44 31 12 6 7 6 7 7 7 12 11 10 10 11 8 7 9 5 5 5 2 4 6 5 29 30 24 21 15 6 5 13 20 25 27 28 33 41 45 52 58
13 5 3 9 6 8 9 17 12 18 35 42 12 11 9 6 7 12 14 4 7 12 13 12 8 7 7 6 10 4 9 5 4 5 6 0 19 31 26 19 14 9 7 21 26 27 30 34 35 40 46 47 54 61
15 8 6 14 5 10 20 12 14 20 7 7 7 8 1 7 3 4 5 6 7 16 27 25 12 5 5 6 3 5 5 3 6 7 8 7 28 29 20 14 11 13 22 35 39 38 36 37 43 46 44 47 54 61
24 12 12 15 13 18 23 37 39 10 9 8 4 5 4 7 8 19 22 15 13 28 22 17 12 5 5 5 1 5 7 8 8 5 5 20 26 21 13 14 17 27 39 41 39 39 36 40 46 49 48 52 57 61
33 18 21 19 16 20 35 23 19 10 7 5 8 7 10 8 8 12 17 23 26 29 18 9 6 5 4 4 7 10 5 10 3 5 14 23 18 14 11 20 30 35 39 39 37 37 42 44 44 49 55 57 61 64
39 19 33 24 20 17 11 8 7 8 9 7 7 17 9 7 15 16 18 18 29 20 4 6 9 4 9 5 7 7 7 1 8 16 17 13 12 15 29 37 40 38 37 37 40 42 44 42 43 51 60 64 65 64
35 28 32 32 30 24 14 6 7 8 10 8 5 12 4 12 24 19 16 27 15 9 9 3 10 7 7 7 5 6 13 9 22 17 8 13 27 36 39 40 38 38 42 43 43 44 42 41 49 46 49 52 57 51
29 36 41 36 30 17 7 5 8 8 8 9 15 19 12 19 19 21 22 25 10 11 9 5 3 5 5 9 9 12 14 15 17 16 26 35 36 34 33 35 38 42 44 44 44 39 37 48 56 57 51 43 46 53
41 40 42 46 39 9 7 6 8 7 6 8 15 15 13 12 18 20 26 29 20 11 7 6 9 11 12 12 15 16 10 17 31 32 33 26 27 29 34 37 41 40 42 39 35 40 50 55 46 47 51 42 49 53
49 50 44 35 30 12 8 7 6 7 10 6 18 11 7 14 10 9 11 19 10 7 10 19 28 30 28 26 28 34 38 38 35 35 37 35 28 35 42 37 32 32 33 37 43 49 53 56 55 59 54 45 45 50
48 52 44 26 9 8 9 7 11 10 6 10 11 7 6 5 5 6 11 8 10 17 19 27 29 27 26 27 25 26 29 31 37 42 46 46 46 32 27 22 26 36 43 52 54 55 58 59 55 57 54 51 48 45
59 50 15 12 8 6 5 10 4 5 5 7 8 6 4 4 3 10 5 9 14 23 23 23 22 19 21 22 24 24 26 31 35 35 32 29 27 21 30 38 40 47 56 57 53 56 53 51 55 48 46 45 45 47
45 12 8 7 6 7 9 5 6 6 5 4 4 4 3 3 5 3 5 9 18 20 21 20 20 19 19 18 15 16 22 30 38 38 19 21 33 42 45 51 55 57 54 49 42 42 48 44 42 43 38 39 41 44
13 6 6 9 6 7 5 7 5 4 4 3 4 4 5 5 4 5 5 10 15 15 12 11 11 12 14 19 26 27 28 31 22 24 32 41 50 56 55 40 44 50 40 43 41 35 36 36 37 33 33 33 34 36
11 5 4 6 7 5 8 7 9 7 6 6 6 2 3 4 4 7 5 7 12 14 10 9 12 19 24 28 38 42 41 33 35 45 54 55 56 52 52 51 47 41 45 33 29 33 40 34 29 28 30 31 34 38
7 4 5 7 10 13 9 7 8 6 8 8 8 9 7 6 9 3 2 11 8 11 16 22 33 39 46 58 64 59 54 57 60 60 61 60 55 49 50 49 47 41 38 32 32 38 33 28 27 31 31 31 34 38
7 9 11 12 6 6 7 7 9 11 7 10 14 9 8 9 1 2 4 16 27 35 41 44 48 50 49 50 53 56 58 59 62 64 60 53 48 45 42 37 33 29 28 32 32 31 26 27 30 31 33 36 39 41
6 13 12 8 4 4 7 8 8 9 10 17 8 6 4 6 4 15 27 34 39 43 46 50 46 45 43 43 43 44 47 44 41 37 34 25 22 28 25 23 25 30 29 26 24 23 24 26 29 32 36 38 38 36
5 10 5 6 6 7 4 16 5 8 10 12 7 7 11 11 12 16 20 24 28 32 34 36 38 39 40 42 41 31 26 23 20 21 20 16 17 20 23 23 22 20 20 21 22 23 25 27 30 31 30 29 26 23
9 10 4 4 6 6 11 14 17 18 20 27 34 28 15 13 13 7 16 20 25 28 29 29 27 29 30 31 31 28 23 22 23 22 21 21 22 23 23 22 22 21 20 21 24 26 26 25 23 22 21 21 20 19
5 4 4 5 6 8 8 11 13 11 10 9 7 6 7 8 6 5 15 23 24 26 29 29 27 25 22 22 25 26 28 30 30 29 28 28 27 27 26 26 24 23 22 22 22 20 19 18 18 19 20 20 21 22
5 9 11 7 5 2 1 4 3 6 5 0 3 4 5 5 6 9 15 26 30 31 32 30 29 27 26 29 32 34 35 36 36 36 35 34 34 32 31 30 27 23 21 19 18 19 18 19 19 20 20 20 21 22
Wind_Direction_500mb
184 186 191 192 193 190 190 190 193 198 198 198 197 191 185 178 176 170 161 160 151 120 160 165 153 152 154 167 150 151 140 155 96 109 167 199 214 203 226 254 206 211 170 198 185 262 275 123 196 313 307 300 301 312
145 187 186 191 192 192 190 189 190 193 197 198 197 196 191 186 182 179 174 167 160 139 164 172 172 178 176 182 158 169 190 154 169 116 190 133 189 185 218 250 190 267 214 261 218 248 287 293 283 299 311 314 315 295
110 152 183 191 197 193 191 191 191 191 195 198 199 196 193 192 189 187 179 169 162 135 135 158 182 187 182 177 176 158 197 173 175 163 148 154 199 171 189 228 263 256 243 242 285 265 286 307 305 343 355 325 3 339
75 118 151 188 196 198 198 194 195 194 194 198 200 198 192 188 185 186 181 176 173 144 137 190 194 192 200 204 210 213 212 192 186 179 145 149 197 206 220 275 250 258 274 272 278 285 289 279 5 299 66 11 37 305
72 50 70 175 199 201 207 203 197 199 199 199 199 200 198 191 186 184 187 184 184 175 155 155 182 200 194 204 213 220 220 211 190 153 150 204 207 176 191 338 258 254 262 253 255 328 321 34 145 295 50 49 311 340
75 43 26 212 200 215 212 208 208 203 201 202 202 200 198 194 185 182 200 214 201 198 164 135 220 214 215 214 214 206 201 214 210 192 198 221 219 199 185 221 273 282 282 287 310 319 312 145 176 121 137 322 331 315
44 17 15 23 206 207 219 214 207 204 200 203 201 203 204 195 194 188 209 205 197 181 181 138 265 217 212 204 201 210 216 217 213 214 217 229 218 208 176 236 184 219 246 299 91 84 106 182 189 189 312 311 309 313
58 35 17 281 244 228 224 217 211 205 204 202 203 206 206 210 210 209 207 135 162 173 194 135 238 226 184 166 161 183 186 205 210 211 205 189 168 199 252 193 164 148 140 115 78 69 148 146 232 310 311 316 317 317
38 45 36 48 289 268 248 222 206 203 202 203 201 206 209 211 207 209 218 229 232 222 207 176 168 214 174 143 137 144 175 193 220 229 208 173 172 212 177 157 158 189 190 146 117 108 94 317 311 318 320 316 313 316
272 322 37 26 7 300 247 237 214 202 198 197 200 190 202 184 196 199 211 202 207 214 213 199 167 142 170 167 137 141 168 172 228 196 270 207 242 185 174 143 133 122 125 135 189 293 331 325 320 317 313 314 315 315
245 315 326 328 307 312 266 249 219 206 197 184 178 159 154 144 152 174 189 183 173 266 188 156 183 133 169 154 133 172 153 170 239 133 260 214 228 184 157 145 137 139 146 146 344 320 317 311 312 311 314 313 316 319
241 247 23 19 40 185 67 96 152 163 174 176 160 136 133 152 120 136 175 184 188 180 155 150 148 134 134 134 131 164 153 165 229 92 235 239 121 161 162 163 167 171 161 335 322 313 308 306 304 310 314 316 319 317
220 197 107 117 105 138 134 123 107 150 144 129 114 104 131 160 187 181 168 169 157 169 156 148 107 106 118 131 90 158 185 177 121 203 233 245 156 166 172 177 180 185 290 320 314 309 304 308 307 313 314 317 318 319
204 184 206 163 155 182 183 147 173 138 83 95 104 105 191 145 82 84 68 107 132 139 130 123 87 84 85 71 85 174 75 204 223 229 223 160 174 179 185 195 217 242 297 312 310 310 308 308 310 313 313 315 319 323
199 188 195 186 192 176 188 163 163 113 54 80 70 86 73 115 102 113 116 115 111 145 128 105 87 102 83 110 78 124 178 232 232 236 133 167 170 176 197 243 257 282 300 305 309 308 307 309 311 311 315 315 320 323
188 191 193 179 182 176 179 132 140 114 74 80 83 97 126 106 103 123 133 134 144 152 129 98 111 147 129 143 183 209 214 228 155 169 156 159 176 203 232 285 292 297 300 301 304 305 308 311 312 313 315 318 320 322
189 198 185 168 161 175 158 90 81 87 80 50 68 132 159 148 158 152 152 154 161 146 130 151 175 138 123 184 218 201 225 313 172 157 159 182 212 275 298 299 301 302 301 302 304 306 307 309 311 316 319 323 321 319
202 182 184 178 182 168 131 74 68 75 77 89 112 143 152 138 142 139 144 155 151 156 135 137 130 188 202 206 207 208 216 195 174 171 198 288 294 290 294 298 297 298 300 304 305 304 306 308 313 315 312 314 314 314
189 188 182 192 177 154 89 66 54 85 80 105 125 137 120 138 150 156 161 166 159 153 145 143 195 216 220 219 223 192 195 199 213 257 284 289 286 288 291 293 295 296 297 300 300 301 304 311 313 314 311 308 307 313
176 177 183 195 194 122 96 77 96 97 132 146 136 138 138 147 146 152 167 173 171 161 190 210 220 211 212 237 241 224 236 270 285 286 284 285 291 298 298 298 296 295 296 300 301 306 314 316 312 309 309 301 309 312
179 174 165 162 110 97 96 106 91 107 126 117 138 131 119 136 137 159 161 164 170 217 236 235 241 256 261 266 272 280 282 285 279 277 286 289 290 289 299 300 297 297 296 297 296 300 309 311 311 314 312 306 305 308
167 172 148 127 90 80 85 89 116 116 109 122 131 121 127 151 154 167 165 187 229 235 229 254 270 279 282 280 283 280 283 282 281 283 285 288 289 288 290 301 305 305 301 300 296 298 304 307 309 311 309 307 308 307
161 159 99 80 99 94 102 111 100 85 124 133 132 134 135 140 159 161 220 236 253 257 261 264 266 267 273 281 285 291 291 289 287 287 290 289 286 289 302 307 305 304 306 306 301 299 300 306 314 314 313 316 317 319
136 82 88 103 96 114 131 88 82 94 103 132 153 165 153 134 145 193 249 247 248 266 277 285 278 273 277 287 296 316 312 296 285 282 278 290 300 305 304 303 303 304 306 303 299 293 302 307 310 312 316 319 321 320
92 56 126 80 104 113 111 125 120 123 134 163 171 181 159 164 203 217 241 262 274 300 299 277 271 277 291 304 313 315 312 300 273 271 289 302 307 304 302 302 300 305 306 306 302 300 301 304 307 310 315 315 319 325
78 39 54 130 131 148 154 137 167 164 154 169 200 123 158 199 235 240 220 312 338 354 23 32 345 330 325 324 322 320 308 282 277 289 296 299 303 297 299 303 298 299 305 306 302 307 312 307 307 307 314 321 325 329
109 127 109 115 126 129 114 105 138 168 170 185 168 165 176 209 231 238 10 32 40 8 339 327 324 322 315 309 304 300 294 288 287 289 290 289 288 284 291 290 286 291 299 296 292 305 305 300 304 311 314 319 324 327
99 138 151 147 107 146 138 164 178 191 182 173 154 187 202 210 152 356 318 320 317 311 309 306 304 304 305 303 300 298 293 291 289 287 284 280 276 280 279 276 278 283 290 293 294 301 299 297 303 306 310 314 318 319
87 136 126 122 133 198 222 199 210 213 191 173 190 205 213 198 261 295 304 313 317 317 314 312 312 310 310 309 312 308 304 305 305 300 286 285 273 268 271 274 284 291 289 283 289 294 297 297 297 302 307 310 312 313
120 154 105 133 176 222 251 198 212 219 208 217 232 264 272 275 284 300 314 320 329 339 344 342 336 330 330 330 329 335 326 329 330 336 336 328 311 300 300 300 297 292 290 294 299 302 303 303 304 306 309 311 313 313
131 154 126 178 255 262 252 247 252 264 269 272 273 266 266 216 216 329 7 10 9 2 358 6 8 3 1 1 357 353 343 346 350 344 335 326 320 316 313 310 306 304 307 309 308 308 309 311 314 317 320 320 321 320
161 170 194 221 254 243 262 274 270 251 252 252 257 220 158 144 125 346 8 13 9 8 6 0 358 359 359 353 344 340 335 332 329 328 327 324 320 317 316 313 311 314 316 314 313 313 314 316 320 322 321 320 320 321
204 216 227 268 278 244 272 310 275 287 243 10 63 83 99 109 114 23 1 358 1 0 357 353 344 328 315 316 316 315 317 319 320 319 317 315 313 312 312 311 312 313 313 313 312 312 314 316 318 319 319 320 322 324
Wind_Speed_850mb
61 56 51 45 42 41 41 41 40 36 33 29 25 21 18 16 16 16 16 15 12 9 23 15 14 12 14 15 9 18 11 4 5 5 7 6 5 7 5 3 7 9 12 9 5 8 11 3 7 6 23 41 43 41
26 58 51 46 45 39 40 42 40 37 34 31 27 23 19 18 17 17 17 15 14 9 14 19 16 17 15 17 15 25 3 11 16 7 5 6 5 2 3 6 8 10 11 6 11 13 25 34 35 38 31 31 15 9
12 22 50 49 44 44 40 41 41 38 35 33 30 26 21 18 16 16 18 19 17 13 13 15 14 20 18 18 20 10 11 13 11 11 13 4 6 10 8 10 17 13 21 9 15 21 35 34 44 14 17 23 11 15
17 8 15 52 49 47 43 38 39 39 36 33 31 28 24 20 18 17 18 19 15 10 9 8 16 20 24 24 24 23 15 22 16 16 8 5 4 16 6 8 12 21 20 22 29 38 41 19 8 8 1 10 7 4
13 14 3 16 40 53 46 44 41 37 38 35 32 29 26 21 18 16 17 18 19 9 8 8 16 17 20 22 26 26 23 24 17 11 7 6 6 7 4 1 8 35 33 12 10 23 16 7 4 0 4 5 5 14
9 9 11 5 20 33 54 53 44 42 37 36 33 30 27 22 16 13 8 16 18 15 7 4 9 15 25 26 25 23 19 17 17 10 9 10 14 11 7 6 16 18 21 23 18 17 3 13 2 13 3 7 15 26
5 8 11 3 10 21 34 68 57 53 46 42 36 33 28 25 22 15 6 6 27 19 7 2 3 6 17 16 15 16 21 13 12 9 11 13 14 13 3 8 7 2 3 4 5 6 10 8 4 5 8 19 27 33
8 9 14 3 4 8 24 42 71 62 56 48 41 36 32 30 29 30 23 7 21 16 9 6 3 4 14 9 8 10 9 15 15 11 7 9 10 11 6 9 5 11 9 10 5 4 7 10 2 13 20 28 34 38
4 5 11 10 6 11 11 31 68 74 62 58 46 43 40 45 35 39 35 30 23 19 8 11 9 7 15 8 8 8 10 3 7 7 8 10 4 9 4 9 7 15 10 19 17 10 4 5 13 21 28 33 38 44
3 1 3 5 7 7 12 20 50 75 71 61 59 35 21 23 31 37 26 16 15 22 22 11 14 6 12 13 6 10 5 2 4 2 3 4 4 3 8 16 19 24 22 12 5 2 11 18 23 28 31 34 38 45
6 3 2 3 4 7 4 10 29 62 64 69 32 19 28 50 29 23 13 11 10 3 11 12 14 7 13 5 6 7 5 4 4 4 4 4 5 15 27 24 20 19 13 6 3 10 17 23 29 32 36 38 40 51
8 3 2 4 2 6 7 22 40 52 30 30 32 44 31 12 6 7 6 7 7 7 12 11 10 10 11 8 7 9 5 5 5 2 4 6 5 29 30 24 21 15 6 5 13 20 25 27 28 33 41 45 52 58
13 5 3 9 6 8 9 17 12 18 35 42 12 11 9 6 7 12 14 4 7 12 13 12 8 7 7 6 10 4 9 5 4 5 6 0 19 31 26 19 14 9 7 21 26 27 30 34 35 40 46 47 54 61
15 8 6 14 5 10 20 12 14 20 7 7 7 8 1 7 3 4 5 6 7 16 27 25 12 5 5 6 3 5 5 3 6 7 8 7 28 29 20 14 11 13 22 35 39 38 36 37 43 46 44 47 54 61
24 12 12 15 13 18 23 37 39 10 9 8 4 5 4 7 8 19 22 15 13 28 22 17 12 5 5 5 1 5 7 8 8 5 5 20 26 21 13 14 17 27 39 41 39 39 36 40 46 49 48 52 57 61
33 18 21 19 16 20 35 23 19 10 7 5 8 7 10 8 8 12 17 23 26 29 18 9 6 5 4 4 7 10 5 10 3 5 14 23 18 14 11 20 30 35 39 39 37 37 42 44 44 49 55 57 61 64
39 19 33 24 20 17 11 8 7 8 9 7 7 17 9 7 15 16 18 18 29 20 4 6 9 4 9 5 7 7 7 1 8 16 17 13 12 15 29 37 40 38 37 37 40 42 44 42 43 51 60 64 65 64
35 28 32 32 30 24 14 6 7 8 10 8 5 12 4 12 24 19 16 27 15 9 9 3 10 7 7 7 5 6 13 9 22 17 8 13 27 36 39 40 38 38 42 43 43 44 42 41 49 46 49 52 57 51
29 36 41 36 30 17 7 5 8 8 8 9 15 19 12 19 19 21 22 25 10 11 9 5 3 5 5 9 9 12 14 15 17 16 26 35 36 34 33 35 38 42 44 44 44 39 37 48 56 57 51 43 46 53
41 40 42 46 39 9 7 6 8 7 6 8 15 15 13 12 18 20 26 29 20 11 7 6 9 11 12 12 15 16 10 17 31 32 33 26 27 29 34 37 41 40 42 39 35 40 50 55 46 47 51 42 49 53
49 50 44 35 30 12 8 7 6 7 10 6 18 11 7 14 10 9 11 19 10 7 10 19 28 30 28 26 28 34 38 38 35 35 37 35 28 35 42 37 32 32 33 37 43 49 53 56 55 59 54 45 45 50
48 52 44 26 9 8 9 7 11 10 6 10 11 7 6 5 5 6 11 8 10 17 19 27 29 27 26 27 25 26 29 31 37 42 46 46 46 32 27 22 26 36 43 52 54 55 58 59 55 57 54 51 48 45
59 50 15 12 8 6 5 10 4 5 5 7 8 6 4 4 3 10 5 9 14 23 23 23 22 19 21 22 24 24 26 31 35 35 32 29 27 21 30 38 40 47 56 57 53 56 53 51 55 48 46 45 45 47
45 12 8 7 6 7 9 5 6 6 5 4 4 4 3 3 5 3 5 9 18 20 21 20 20 19 19 18 15 16 22 30 38 38 19 21 33 42 45 51 55 57 54 49 42 42 48 44 42 43 38 39 41 44
13 6 6 9 6 7 5 7 5 4 4 3 4 4 5 5 4 5 5 10 15 15 12 11 11 12 14 19 26 27 28 31 22 24 32 41 50 56 55 40 44 50 40 43 41 35 36 36 37 33 33 33 34 36
11 5 4 6 7 5 8 7 9 7 6 6 6 2 3 4 4 7 5 7 12 14 10 9 12 19 24 28 38 42 41 33 35 45 54 55 56 52 52 51 47 41 45 33 29 33 40 34 29 28 30 31 34 38
7 4 5 7 10 13 9 7 8 6 8 8 8 9 7 6 9 3 2 11 8 11 16 22 33 39 46 58 64 59 54 57 60 60 61 60 55 49 50 49 47 41 38 32 32 38 33 28 27 31 31 31 34 38
7 9 11 12 6 6 7 7 9 11 7 10 14 9 8 9 1 2 4 16 27 35 41 44 48 50 49 50 53 56 58 59 62 64 60 53 48 45 42 37 33 29 28 32 32 31 26 27 30 31 33 36 39 41
6 13 12 8 4 4 7 8 8 9 10 17 8 6 4 6 4 15 27 34 39 43 46 50 46 45 43 43 43 44 47 44 41 37 34 25 22 28 25 23 25 30 29 26 24 23 24 26 29 32 36 38 38 36
5 10 5 6 6 7 4 16 5 8 10 12 7 7 11 11 12 16 20 24 28 32 34 36 38 39 40 42 41 31 26 23 20 21 20 16 17 20 23 23 22 20 20 21 22 23 25 27 30 31 30 29 26 23
9 10 4 4 6 6 11 14 17 18 20 27 34 28 15 13 13 7 16 20 25 28 29 29 27 29 30 31 31 28 23 22 23 22 21 21 22 23 23 22 22 21 20 21 24 26 26 25 23 22 21 21 20 19
5 4 4 5 6 8 8 11 13 11 10 9 7 6 7 8 6 5 15 23 24 26 29 29 27 25 22 22 25 26 28 30 30 29 28 28 27 27 26 26 24 23 22 22 22 20 19 18 18 19 20 20 21 22
5 9 11 7 5 2 1 4 3 6 5 0 3 4 5 5 6 9 15 26 30 31 32 30 29 27 26 29 32 34 35 36 36 36 35 34 34 32 31 30 27 23 21 19 18 19 18 19 19 20 20 20 21 22
Wind_Direction_850mb
184 186 191 192 193 190 190 190 193 198 198 198 197 191 185 178 176 170 161 160 151 120 160 165 153 152 154 167 150 151 140 155 96 109 167 199 214 203 226 254 206 211 170 198 185 262 275 123 196 313 307 300 301 312
145 187 186 191 192 192 190 189 190 193 197 198 197 196 191 186 182 179 174 167 160 139 164 172 172 178 176 182 158 169 190 154 169 116 190 133 189 185 218 250 190 267 214 261 218 248 287 293 283 299 311 314 315 295
110 152 183 191 197 193 191 191 191 191 195 198 199 196 193 192 189 187 179 169 162 135 135 158 182 187 182 177 176 158 197 173 175 163 148 154 199 171 189 228 263 256 243 242 285 265 286 307 305 343 355 325 3 339
75 118 151 188 196 198 198 194 195 194 194 198 200 198 192 188 185 186 181 176 173 144 137 190 194 192 200 204 210 213 212 192 186 179 145 149 197 206 220 275 250 258 274 272 278 285 289 279 5 299 66 11 37 305
72 50 70 175 199 201 207 203 197 199 199 199 199 200 198 191 186 184 187 184 184 175 155 155 182 200 194 204 213 220 220 211 190 153 150 204 207 176 191 338 258 254 262 253 255 328 321 34 145 295 50 49 311 340
75 43 26 212 200 215 212 208 208 203 201 202 202 200 198 194 185 182 200 214 201 198 164 135 220 214 215 214 214 206 201 214 210 192 198 221 219 199 185 221 273 282 282 287 310 319 312 145 176 121 137 322 331 315
44 17 15 23 206 207 219 214 207 204 200 203 201 203 204 195 194 188 209 205 197 181 181 138 265 217 212 204 201 210 216 217 213 214 217 229 218 208 176 236 184 219 246 299 91 84 106 182 189 189 312 311 309 313
58 35 17 281 244 228 224 217 211 205 204 202 203 206 206 210 210 209 207 135 162 173 194 135 238 226 184 166 161 183 186 205 210 211 205 189 168 199 252 193 164 148 140 115 78 69 148 146 232 310 311 316 317 317
38 45 36 48 289 268 248 222 206 203 202 203 201 206 209 211 207 209 218 229 232 222 207 176 168 214 174 143 137 144 175 193 220 229 208 173 172 212 177 157 158 189 190 146 117 108 94 317 311 318 320 316 313 316
272 322 37 26 7 300 247 237 214 202 198 197 200 190 202 184 196 199 211 202 207 214 213 199 167 142 170 167 137 141 168 172 228 196 270 207 242 185 174 143 133 122 125 135 189 293 331 325 320 317 313 314 315 315
245 315 326 328 307 312 266 249 219 206 197 184 178 159 154 144 152 174 189 183 173 266 188 156 183 133 169 154 133 172 153 170 239 133 260 214 228 184 157 145 137 139 146 146 344 320 317 311 312 311 314 313 316 319
241 247 23 19 40 185 67 96 152 163 174 176 160 136 133 152 120 136 175 184 188 180 155 150 148 134 134 134 131 164 153 165 229 92 235 239 121 161 162 163 167 171 161 335 322 313 308 306 304 310 314 316 319 317
220 197 107 117 105 138 134 123 107 150 144 129 114 104 131 160 187 181 168 169 157 169 156 148 107 106 118 131 90 158 185 177 121 203 233 245 156 166 172 177 180 185 290 320 314 309 304 308 307 313 314 317 318 319
204 184 206 163 155 182 183 147 173 138 83 95 104 105 191 145 82 84 68 107 132 139 130 123 87 84 85 71 85 174 75 204 223 229 223 160 174 179 185 195 217 242 297 312 310 310 308 308 310 313 313 315 319 323
199 188 195 186 192 176 188 163 163 113 54 80 70 86 73 115 102 113 116 115 111 145 128 105 87 102 83 110 78 124 178 232 232 236 133 167 170 176 197 243 257 282 300 305 309 308 307 309 311 311 315 315 320 323
188 191 193 179 182 176 179 132 140 114 74 80 83 97 126 106 103 123 133 134 144 152 129 98 111 147 129 143 183 209 214 228 155 169 156 159 176 203 232 285 292 297 300 301 304 305 308 311 312 313 315 318 320 322
189 198 185 168 161 175 158 90 81 87 80 50 68 132 159 148 158 152 152 154 161 146 130 151 175 138 123 184 218 201 225 313 172 157 159 182 212 275 298 299 301 302 301 302 304 306 307 309 311 316 319 323 321 319
202 182 184 178 182 168 131 74 68 75 77 89 112 143 152 138 142 139 144 155 151 156 135 137 130 188 202 206 207 208 216 195 174 171 198 288 294 290 294 298 297 298 300 304 305 304 306 308 313 315 312 314 314 314
189 188 182 192 177 154 89 66 54 85 80 105 125 137 120 138 150 156 161 166 159 153 145 143 195 216 220 219 223 192 195 199 213 257 284 289 286 288 291 293 295 296 297 300 300 301 304 311 313 314 311 308 307 313
176 177 183 195 194 122 96 77 96 97 132 146 136 138 138 147 146 152 167 173 171 161 190 210 220 211 212 237 241 224 236 270 285 286 284 285 291 298 298 298 296 295 296 300 301 306 314 316 312 309 309 301 309 312
179 174 165 162 110 97 96 106 91 107 126 117 138 131 119 136 137 159 161 164 170 217 236 235 241 256 261 266 272 280 282 285 279 277 286 289 290 289 299 300 297 297 296 297 296 300 309 311 311 314 312 306 305 308
167 172 148 127 90 80 85 89 116 116 109 122 131 121 127 151 154 167 165 187 229 235 229 254 270 279 282 280 283 280 283 282 281 283 285 288 289 288 290 301 305 305 301 300 296 298 304 307 309 311 309 307 308 307
161 159 99 80 99 94 102 111 100 85 124 133 132 134 135 140 159 161 220 236 253 257 261 264 266 267 273 281 285 291 291 289 287 287 290 289 286 289 302 307 305 304 306 306 301 299 300 306 314 314 313 316 317 319
136 82 88 103 96 114 131 88 82 94 103 132 153 165 153 134 145 193 249 247 248 266 277 285 278 273 277 287 296 316 312 296 285 282 278 290 300 305 304 303 303 304 306 303 299 293 302 307 310 312 316 319 321 320
92 56 126 80 104 113 111 125 120 123 134 163 171 181 159 164 203 217 241 262 274 300 299 277 271 277 291 304 313 315 312 300 273 271 289 302 307 304 302 302 300 305 306 306 302 300 301 304 307 310 315 315 319 325
78 39 54 130 131 148 154 137 167 164 154 169 200 123 158 199 235 240 220 312 338 354 23 32 345 330 325 324 322 320 308 282 277 289 296 299 303 297 299 303 298 299 305 306 302 307 312 307 307 307 314 321 325 329
109 127 109 115 126 129 114 105 138 168 170 185 168 165 176 209 231 238 10 32 40 8 339 327 324 322 315 309 304 300 294 288 287 289 290 289 288 284 291 290 286 291 299 296 292 305 305 300 304 311 314 319 324 327
99 138 151 147 107 146 138 164 178 191 182 173 154 187 202 210 152 356 318 320 317 311 309 306 304 304 305 303 300 298 293 291 289 287 284 280 276 280 279 276 278 283 290 293 294 301 299 297 303 306 310 314 318 319
87 136 126 122 133 198 222 199 210 213 191 173 190 205 213 198 261 295 304 313 317 317 314 312 312 310 310 309 312 308 304 305 305 300 286 285 273 268 271 274 284 291 289 283 289 294 297 297 297 302 307 310 312 313
120 154 105 133 176 222 251 198 212 219 208 217 232 264 272 275 284 300 314 320 329 339 344 342 336 330 330 330 329 335 326 329 330 336 336 328 311 300 300 300 297 292 290 294 299 302 303 303 304 306 309 311 313 313
131 154 126 178 255 262 252 247 252 264 269 272 273 266 266 216 216 329 7 10 9 2 358 6 8 3 1 1 357 353 343 346 350 344 335 326 320 316 313 310 306 304 307 309 308 308 309 311 314 317 320 320 321 320
161 170 194 221 254 243 262 274 270 251 252 252 257 220 158 144 125 346 8 13 9 8 6 0 358 359 359 353 344 340 335 332 329 328 327 324 320 317 316 313 311 314 316 314 313 313 314 316 320 322 321 320 320 321
204 216 227 268 278 244 272 310 275 287 243 10 63 83 99 109 114 23 1 358 1 0 357 353 344 328 315 316 316 315 317 319 320 319 317 315 313 312 312 311 312 313 313 313 312 312 314 316 318 319 319 320 322 324